| time (UTC) | temp F | wind direction | speed knots | gust knots | rain 1hr in | rain 24hr in | rain mn in | humidity % | barometer mb |
| 20260508184523 | 52 | 236 | 4.3 | 9.6 | 0.03 | 0.11 | 0.09 | 89 | 1011.8 |
| 20260508183020 | 53 | 360 | 3.5 | 10.4 | 0.01 | 0.09 | 0.07 | 87 | 1012.1 |
| 20260508181518 | 54 | 360 | 4.3 | 9.6 | 0.00 | 0.08 | 0.06 | 84 | 1012.1 |
| 20260508180017 | 55 | 360 | 2.6 | 11.3 | 0.00 | 0.08 | 0.06 | 81 | 1012.1 |
| 20260508174518 | 56 | 190 | 3.5 | 13.9 | 0.01 | 0.08 | 0.06 | 80 | 1011.9 |
| 20260508173014 | 56 | 360 | 5.2 | 9.6 | 0.02 | 0.08 | 0.06 | 81 | 1012.0 |
| 20260508171510 | 55 | 360 | 5.2 | 9.6 | 0.02 | 0.08 | 0.06 | 83 | 1012.3 |
| 20260508170009 | 53 | 158 | 2.6 | 7.8 | 0.02 | 0.08 | 0.06 | 85 | 1012.6 |
| 20260508164508 | 52 | 360 | 2.6 | 8.7 | 0.01 | 0.07 | 0.05 | 82 | 1012.9 |
| 20260508163014 | 53 | 252 | 2.6 | 9.6 | 0.00 | 0.06 | 0.04 | 80 | 1013.0 |
| 20260508161507 | 53 | 262 | 4.3 | 10.4 | 0.00 | 0.06 | 0.04 | 79 | 1013.3 |
| 20260508160007 | 53 | 252 | 5.2 | 10.4 | 0.00 | 0.06 | 0.04 | 78 | 1013.1 |
| 20260508154507 | 53 | 260 | 2.6 | 11.3 | 0.00 | 0.06 | 0.04 | 78 | 1013.2 |
| 20260508153016 | 53 | 280 | 4.3 | 9.6 | 0.00 | 0.06 | 0.04 | 77 | 1013.0 |
| 20260508151505 | 54 | 234 | 5.2 | 13.9 | 0.00 | 0.06 | 0.04 | 76 | 1012.9 |
| 20260508150006 | 55 | 263 | 6.1 | 13.0 | 0.00 | 0.06 | 0.04 | 77 | 1013.0 |
| 20260508144503 | 54 | 240 | 5.2 | 9.6 | 0.00 | 0.06 | 0.04 | 79 | 1013.0 |
| 20260508143118 | 53 | 266 | 7.0 | 13.0 | 0.00 | 0.06 | 0.04 | 78 | 1013.1 |
| 20260508141606 | 53 | 236 | 7.0 | 11.3 | 0.00 | 0.06 | 0.04 | 77 | 1013.1 |
| 20260508140118 | 53 | 284 | 4.3 | 13.0 | 0.00 | 0.06 | 0.04 | 77 | 1013.1 |
| 20260508134557 | 53 | 244 | 5.2 | 11.3 | 0.00 | 0.06 | 0.04 | 77 | 1013.2 |
| 20260508133103 | 52 | 360 | 7.0 | 13.9 | 0.00 | 0.06 | 0.04 | 76 | 1013.1 |
| 20260508131556 | 52 | 257 | 7.8 | 13.0 | 0.00 | 0.06 | 0.04 | 75 | 1013.3 |
| 20260508130054 | 52 | 280 | 5.2 | 8.7 | 0.00 | 0.06 | 0.04 | 77 | 1013.3 |
| 20260508124549 | 50 | 360 | 5.2 | 11.3 | 0.00 | 0.06 | 0.04 | 78 | 1013.1 |
| 20260508123049 | 49 | 242 | 4.3 | 8.7 | 0.00 | 0.06 | 0.04 | 80 | 1013.3 |
| 20260508121547 | 48 | 265 | 4.3 | 7.8 | 0.00 | 0.06 | 0.04 | 80 | 1013.2 |
| 20260508120042 | 48 | 360 | 4.3 | 9.6 | 0.00 | 0.06 | 0.04 | 80 | 1013.2 |
| 20260508114539 | 47 | 269 | 3.5 | 8.7 | 0.00 | 0.06 | 0.04 | 82 | 1013.0 |
| 20260508113039 | 46 | 360 | 2.6 | 7.0 | 0.00 | 0.06 | 0.04 | 84 | 1012.7 |
| 20260508111540 | 45 | 242 | 1.7 | 7.8 | 0.00 | 0.06 | 0.04 | 85 | 1012.5 |
| 20260508110036 | 44 | 360 | 1.7 | 5.2 | 0.00 | 0.06 | 0.04 | 86 | 1012.4 |
| 20260508104534 | 44 | 233 | 2.6 | 7.0 | 0.00 | 0.06 | 0.04 | 88 | 1012.5 |
| 20260508103043 | 43 | 360 | 1.7 | 3.5 | 0.00 | 0.06 | 0.04 | 89 | 1012.3 |
| 20260508101532 | 43 | 192 | 0.9 | 2.6 | 0.00 | 0.06 | 0.04 | 89 | 1012.3 |
| 20260508100041 | 43 | 179 | 1.7 | 4.3 | 0.00 | 0.06 | 0.04 | 89 | 1012.3 |
| 20260508094527 | 44 | 171 | 1.7 | 3.5 | 0.01 | 0.06 | 0.04 | 88 | 1012.5 |
| 20260508093033 | 45 | 173 | 2.6 | 6.1 | 0.01 | 0.06 | 0.04 | 88 | 1012.6 |
| 20260508091526 | 45 | 182 | 2.6 | 7.0 | 0.01 | 0.06 | 0.04 | 88 | 1012.4 |
| 20260508090026 | 45 | 360 | 4.3 | 8.7 | 0.01 | 0.06 | 0.04 | 87 | 1012.4 |
| 20260508084522 | 45 | 159 | 3.5 | 6.1 | 0.00 | 0.05 | 0.03 | 87 | 1012.5 |
| 20260508083021 | 45 | 360 | 1.7 | 7.0 | 0.00 | 0.05 | 0.03 | 88 | 1012.6 |
| 20260508081520 | 45 | 148 | 3.5 | 5.2 | 0.00 | 0.05 | 0.03 | 87 | 1012.7 |
| 20260508080017 | 45 | 360 | 1.7 | 5.2 | 0.00 | 0.05 | 0.03 | 86 | 1012.7 |
| 20260508074517 | 46 | 360 | 1.7 | 4.3 | 0.02 | 0.05 | 0.03 | 86 | 1012.7 |
| 20260508073017 | 46 | 360 | 2.6 | 7.0 | 0.02 | 0.05 | 0.03 | 86 | 1012.8 |
| 20260508071516 | 46 | 360 | 2.6 | 7.8 | 0.02 | 0.05 | 0.03 | 87 | 1013.0 |
| 20260508070015 | 46 | 360 | 4.3 | 9.6 | 0.02 | 0.05 | 0.03 | 88 | 1012.8 |
| 20260508064512 | 45 | 230 | 1.7 | 4.3 | 0.00 | 0.03 | 0.01 | 88 | 1013.0 |
| 20260508063011 | 45 | 360 | 1.7 | 9.6 | 0.00 | 0.03 | 0.01 | 88 | 1013.1 |
| 20260508061508 | 45 | 360 | 3.5 | 7.8 | 0.00 | 0.03 | 0.01 | 88 | 1013.2 |
| 20260508060006 | 46 | 188 | 1.7 | 7.8 | 0.01 | 0.03 | 0.01 | 87 | 1013.4 |
| 20260508054510 | 46 | 360 | 2.6 | 7.0 | 0.02 | 0.03 | 0.01 | 87 | 1013.4 |
| 20260508053003 | 46 | 360 | 1.7 | 7.8 | 0.02 | 0.03 | 0.01 | 86 | 1013.4 |
| 20260508051600 | 46 | 360 | 3.5 | 5.2 | 0.03 | 0.03 | 0.01 | 85 | 1013.9 |
| 20260508050059 | 47 | 263 | 3.5 | 8.7 | 0.02 | 0.02 | 0.00 | 84 | 1014.5 |
| 20260508044558 | 47 | 276 | 2.6 | 5.2 | 0.01 | 0.01 | 0.01 | 82 | 1014.5 |
| 20260508043100 | 47 | 249 | 0.9 | 6.1 | 0.01 | 0.01 | 0.01 | 81 | 1014.2 |
| 20260508041556 | 47 | 360 | 3.5 | 7.8 | 0.00 | 0.00 | 0.00 | 78 | 1014.0 |
| 20260508040056 | 47 | 180 | 0.9 | 2.6 | 0.00 | 0.00 | 0.00 | 79 | 1013.5 |
| 20260508034556 | 47 | 179 | 0.9 | 5.2 | 0.00 | 0.00 | 0.00 | 79 | 1013.5 |
| 20260508033055 | 47 | 162 | 2.6 | 5.2 | 0.00 | 0.00 | 0.00 | 80 | 1013.6 |
| 20260508031559 | 47 | 171 | 0.9 | 1.7 | 0.00 | 0.00 | 0.00 | 79 | 1013.8 |
| 20260508024607 | 48 | 173 | 0.9 | 3.5 | 0.00 | 0.00 | 0.00 | 77 | 1014.0 |
| 20260508023053 | 49 | 360 | 0.0 | 2.6 | 0.00 | 0.00 | 0.00 | 76 | 1014.1 |
| 20260508021553 | 49 | 360 | 0.9 | 2.6 | 0.00 | 0.00 | 0.00 | 74 | 1014.1 |
| 20260508020103 | 49 | 360 | 0.0 | 2.6 | 0.00 | 0.00 | 0.00 | 74 | 1014.1 |
| 20260508014553 | 49 | 253 | 0.9 | 5.2 | 0.00 | 0.00 | 0.00 | 74 | 1014.2 |
| 20260508013053 | 50 | 259 | 2.6 | 6.1 | 0.00 | 0.00 | 0.00 | 72 | 1014.1 |
| 20260508011553 | 50 | 360 | 4.3 | 11.3 | 0.00 | 0.00 | 0.00 | 69 | 1014.0 |
| 20260508010053 | 50 | 277 | 5.2 | 9.6 | 0.00 | 0.00 | 0.00 | 69 | 1013.9 |
| 20260508004550 | 50 | 287 | 8.7 | 12.2 | 0.00 | 0.00 | 0.00 | 70 | 1013.7 |
| 20260508003052 | 51 | 296 | 13.0 | 22.6 | 0.00 | 0.00 | 0.00 | 64 | 1013.6 |
| 20260508001549 | 53 | 360 | 7.8 | 18.2 | 0.00 | 0.00 | 0.00 | 59 | 1013.4 |
| 20260508000049 | 53 | 360 | 12.2 | 20.9 | 0.00 | 0.00 | 0.00 | 58 | 1013.2 |
| 20260507234548 | 54 | 360 | 13.0 | 23.5 | 0.00 | 0.00 | 0.00 | 53 | 1013.0 |
| 20260507233048 | 54 | 239 | 2.6 | 8.7 | 0.00 | 0.00 | 0.00 | 58 | 1013.0 |
| 20260507231547 | 55 | 274 | 5.2 | 10.4 | 0.00 | 0.00 | 0.00 | 53 | 1013.0 |
| 20260507230045 | 55 | 272 | 4.3 | 8.7 | 0.00 | 0.00 | 0.00 | 55 | 1013.0 |
| 20260507224547 | 55 | 290 | 5.2 | 9.6 | 0.00 | 0.00 | 0.00 | 53 | 1013.0 |
| 20260507223045 | 56 | 360 | 9.6 | 13.9 | 0.00 | 0.00 | 0.00 | 53 | 1012.9 |
| 20260507221543 | 57 | 257 | 6.1 | 11.3 | 0.00 | 0.00 | 0.00 | 52 | 1013.1 |
| 20260507220043 | 56 | 250 | 7.0 | 13.0 | 0.00 | 0.00 | 0.00 | 50 | 1013.2 |
| 20260507214548 | 56 | 269 | 7.8 | 16.5 | 0.00 | 0.00 | 0.00 | 48 | 1013.1 |
| 20260507213041 | 57 | 360 | 10.4 | 19.1 | 0.00 | 0.00 | 0.00 | 53 | 1013.0 |
| 20260507211543 | 57 | 360 | 11.3 | 20.0 | 0.00 | 0.00 | 0.00 | 51 | 1013.0 |
| 20260507210039 | 56 | 290 | 10.4 | 15.6 | 0.00 | 0.00 | 0.00 | 55 | 1013.1 |
| 20260507204538 | 57 | 313 | 12.2 | 20.9 | 0.00 | 0.00 | 0.00 | 55 | 1013.1 |
| 20260507203038 | 55 | 360 | 16.5 | 21.7 | 0.00 | 0.00 | 0.00 | 54 | 1013.2 |
| 20260507201534 | 56 | 360 | 16.5 | 20.0 | 0.00 | 0.00 | 0.00 | 55 | 1013.4 |
| 20260507200035 | 55 | 360 | 14.8 | 21.7 | 0.00 | 0.00 | 0.00 | 55 | 1013.4 |
| 20260507194534 | 56 | 360 | 15.6 | 21.7 | 0.00 | 0.00 | 0.00 | 55 | 1013.4 |
| 20260507193036 | 56 | 360 | 18.2 | 24.3 | 0.00 | 0.00 | 0.00 | 56 | 1013.3 |
| 20260507191533 | 56 | 262 | 14.8 | 20.9 | 0.00 | 0.00 | 0.00 | 58 | 1013.4 |
| 20260507190033 | 56 | 360 | 17.4 | 20.9 | 0.00 | 0.00 | 0.00 | 56 | 1013.5 |